Location: Unspecified
(33.6682°S, 0.0000°E)
Time: 05:59:36
(UTC+00:00)

Tiros 1 despin weight - Pass Details

Date: 20 June 2019
Orbit: 594 x 642 km, 48.2° (Epoch: 15 July)

Event Time Altitude Azimuth Distance (km) Brightness Sun altitude
Rises 14:41:58 0° 236° (SW) 2,965 ? 21.3°
Reaches altitude 10° 14:45:29 10° 209° (SSW) 2,059 ? 20.9°
Maximum altitude 14:47:53 14° 179° (S) 1,826 ? 20.5°
Drops below altitude 10° 14:50:16 10° 148° (SSE) 2,058 ? 20.2°
Sets 14:53:47 0° 122° (ESE) 2,964 ? 19.7°
